[[{"header":{"parameterUnit":"m.s-1","parameterCategory":2,"la1":30.2992,"la2":30.254,"lo1":-89.0895,"lo2":-89.0443,"dy":0.0025,"dx":0.0025,"nx":19,"ny":19,"refTime":"2026-05-01T21:00:00:Z","depth":"0","parameterNumber":2,"parameterNumberName":"U-component_of_CURRENTS"},"data":[0,0,0,-0.3028,-0.3031,-0.3137,-0.3137,-0.3199,-0.3199,0,0,0,0,0,0,0,0,0,0,0,-0.2959,-0.2959,-0.3028,-0.3031,-0.3137,-0.3137,-0.3198,-0.3199,0,0,0,0,0,0,0,0,0,0,0,-0.2959,-0.2959,-0.296,-0.3031,-0.3137,-0.3137,-0.3198,-0.3133,0,0,0,0,0,0,0,0,0,0,-0.3037,-0.2973,-0.2959,-0.296,-0.3032,-0.3137,-0.3137,-0.313,-0.3137,-0.3134,0,-0.3141,0,-0.3191,-0.3203,-0.3203,0,0,0,-0.3015,-0.2967,-0.3022,-0.296,-0.3033,-0.3137,-0.3085,-0.3135,-0.3142,-0.3142,-0.3142,-0.3146,-0.3193,-0.3203,-0.3204,-0.3124,-0.3122,0,0,-0.3009,-0.2956,-0.3017,-0.3026,-0.3047,-0.3081,-0.3088,-0.314,-0.3124,-0.3143,-0.3149,-0.3194,-0.3204,-0.3204,-0.3125,-0.3123,0,0,0,-0.3003,-0.2951,-0.3005,-0.3022,-0.3059,-0.3085,-0.3093,-0.3121,-0.3146,-0.315,-0.3194,-0.3204,-0.3205,-0.3126,-0.3124,-0.3059,0,0,0,-0.2999,-0.295,-0.3002,-0.2968,-0.3058,-0.3099,-0.3072,-0.3141,-0.3151,-0.3194,-0.3204,-0.3205,-0.3128,-0.3125,-0.3064,-0.2994,0,0,0,-0.2956,-0.2946,-0.2959,-0.2965,-0.3026,-0.31,-0.3127,-0.3144,-0.3178,-0.3203,-0.3205,-0.3129,-0.3126,-0.3068,-0.3003,-0.2933,0,0,0,-0.2897,-0.2882,-0.2957,-0.2976,-0.3025,-0.3092,-0.3127,-0.3171,-0.319,-0.3204,-0.3128,-0.3125,-0.3069,-0.3008,-0.2938,-0.2827,-0.2794,0,0,-0.2846,-0.2873,-0.2897,-0.297,-0.3014,-0.3077,-0.3069,-0.3113,-0.3131,-0.3107,-0.3106,-0.3062,-0.3003,-0.2934,-0.2648,-0.262,0,0,0,-0.2865,-0.2856,-0.2893,-0.2941,-0.3026,-0.3021,-0.3085,-0.3065,-0.3026,-0.3132,-0.3017,-0.298,-0.294,-0.2882,-0.2859,-0.2804,-0.311,-0.311,-0.3111,-0.2652,-0.2762,-0.2767,-0.2874,-0.2911,-0.2972,-0.2942,-0.2906,-0.2978,-0.2915,-0.2895,-0.2746,-0.2683,-0.2665,-0.2609,-0.288,-0.288,-0.2879,-0.2879,-0.2546,-0.2576,-0.265,-0.2696,-0.2747,-0.2747,-0.2751,-0.2773,-0.2691,-0.2758,-0.2725,-0.2775,-0.2636,-0.2585,-0.2874,-0.2875,-0.2876,-0.2876,-0.2877,-0.2428,-0.246,-0.2487,-0.2536,-0.2524,-0.2599,-0.2532,-0.2566,-0.258,-0.2548,-0.2506,-0.2506,-0.249,-0.2555,-0.2554,-0.2554,-0.2553,-0.2553,-0.2552,-0.2323,-0.2353,-0.2351,-0.2389,-0.2384,-0.2385,-0.2409,-0.2386,-0.2363,-0.2372,-0.2372,-0.2394,-0.2647,-0.2692,-0.2543,-0.2544,-0.2546,-0.2547,-0.2547,-0.227,-0.2283,-0.2257,-0.2244,-0.2219,-0.2119,-0.2193,-0.2134,-0.2129,-0.2082,-0.2087,-0.228,-0.2282,-0.23,-0.2335,-0.2102,-0.2102,-0.2102,-0.2102,-0.2228,-0.2239,-0.2171,-0.2097,-0.2028,-0.1983,-0.1834,-0.1827,-0.1836,-0.1802,-0.1873,-0.1929,-0.1949,-0.1938,-0.1964,-0.1995,-0.1681,-0.168,-0.168,-0.22,-0.2177,-0.2086,-0.2014,-0.1914,-0.1805,-0.1611,-0.1539,-0.1594,-0.1663,-0.1811,-0.1829,-0.1921,-0.1958,-0.196,-0.2001,-0.2059,0,0]},{"header":{"parameterUnit":"m.s-1","parameterCategory":2,"la1":30.2992,"la2":30.254,"lo1":-89.0895,"lo2":-89.0443,"dy":0.0025,"dx":0.0025,"nx":19,"ny":19,"refTime":"2026-05-01T21:00:00:Z","depth":"0","parameterNumber":3,"parameterNumberName":"V-component_of_CURRENTS"},"data":[0,0,0,-0.0755,-0.0753,-0.0647,-0.0646,-0.0464,-0.0462,0,0,0,0,0,0,0,0,0,0,0,-0.0795,-0.0795,-0.0755,-0.0753,-0.0647,-0.0646,-0.0464,-0.0462,0,0,0,0,0,0,0,0,0,0,0,-0.0795,-0.0795,-0.0795,-0.0753,-0.0647,-0.0646,-0.0464,-0.055,0,0,0,0,0,0,0,0,0,0,-0.0657,-0.0696,-0.0795,-0.0795,-0.0753,-0.0647,-0.0646,-0.0555,-0.0545,-0.0506,0,-0.0509,0,-0.049,-0.0451,-0.0451,0,0,0,-0.0729,-0.0704,-0.0693,-0.0795,-0.0752,-0.0648,-0.0688,-0.055,-0.0538,-0.0493,-0.0507,-0.05,-0.0487,-0.045,-0.045,-0.0335,-0.0335,0,0,-0.0735,-0.0749,-0.0701,-0.0687,-0.0748,-0.0692,-0.0685,-0.0543,-0.053,-0.0506,-0.0496,-0.0484,-0.0449,-0.0448,-0.0335,-0.0335,0,0,0,-0.0768,-0.0753,-0.0746,-0.0695,-0.0683,-0.0689,-0.0682,-0.0535,-0.0539,-0.0494,-0.0481,-0.0448,-0.0446,-0.0335,-0.0335,-0.0431,0,0,0,-0.077,-0.0775,-0.0749,-0.0753,-0.0687,-0.0611,-0.0677,-0.0549,-0.0532,-0.0482,-0.0448,-0.0445,-0.0335,-0.0335,-0.0428,-0.0463,0,0,0,-0.0795,-0.0776,-0.0776,-0.0755,-0.0721,-0.0614,-0.0607,-0.0545,-0.0526,-0.0451,-0.0444,-0.0335,-0.0335,-0.0426,-0.0459,-0.0435,0,0,0,-0.0796,-0.0821,-0.0777,-0.0799,-0.0723,-0.0697,-0.0607,-0.0564,-0.0511,-0.0447,-0.0335,-0.0335,-0.0425,-0.0456,-0.0434,-0.0364,-0.0366,0,0,-0.0837,-0.0826,-0.0844,-0.0803,-0.0816,-0.0709,-0.0678,-0.0571,-0.049,-0.0374,-0.0371,-0.0429,-0.0459,-0.0435,-0.0361,-0.0364,0,0,0,-0.0863,-0.0879,-0.0875,-0.0868,-0.0827,-0.0759,-0.0653,-0.059,-0.0485,-0.0461,-0.0401,-0.0416,-0.0398,-0.0352,-0.0353,-0.0149,-0.0335,-0.0335,-0.0335,-0.0915,-0.0915,-0.0939,-0.0923,-0.0892,-0.0784,-0.0718,-0.0602,-0.053,-0.0497,-0.0474,-0.0494,-0.0446,-0.0446,-0.0237,-0.0453,-0.0453,-0.0453,-0.0454,-0.0995,-0.1027,-0.0988,-0.1017,-0.0943,-0.09,-0.0753,-0.0688,-0.0568,-0.0522,-0.05,-0.043,-0.0454,-0.023,-0.0459,-0.0458,-0.0458,-0.0457,-0.0457,-0.1053,-0.1073,-0.1075,-0.1096,-0.1054,-0.0961,-0.0894,-0.0777,-0.065,-0.0627,-0.0511,-0.0508,-0.0323,-0.0602,-0.0602,-0.0602,-0.0602,-0.0602,-0.0602,-0.1127,-0.113,-0.118,-0.1176,-0.1167,-0.1115,-0.0969,-0.0883,-0.0703,-0.0589,-0.0587,-0.029,-0.0537,-0.0546,-0.0603,-0.0603,-0.0603,-0.0603,-0.0602,-0.1248,-0.1242,-0.1309,-0.132,-0.1282,-0.1208,-0.109,-0.0858,-0.0745,-0.0635,-0.0262,-0.054,-0.0487,-0.0484,-0.0489,-0.0528,-0.0528,-0.0528,-0.0528,-0.1329,-0.1333,-0.1409,-0.1413,-0.1379,-0.1243,-0.1059,-0.0793,-0.0392,-0.016,-0.0117,-0.0054,-0.0067,0.0015,0.0008,0.0015,0.0105,0.0106,0.0107,-0.1414,-0.1418,-0.1472,-0.1455,-0.1403,-0.1253,-0.1018,-0.0642,-0.0076,0.0152,0.0154,0.0127,0.0236,0.0201,0.0342,0.0315,0.0332,0,0]}],[{"header":{"parameterUnit":"m.s-1","parameterCategory":2,"la1":30.2992,"la2":30.254,"lo1":-89.0895,"lo2":-89.0443,"dy":0.0025,"dx":0.0025,"nx":19,"ny":19,"refTime":"2026-05-01T21:00:00:Z","depth":"2","parameterNumber":2,"parameterNumberName":"U-component_of_CURRENTS"},"data":[0,0,0,-0.2576,-0.2579,-0.2727,-0.2728,-0.2848,-0.2849,0,0,0,0,0,0,0,0,0,0,0,-0.2524,-0.2525,-0.2576,-0.2579,-0.2727,-0.2728,-0.2848,-0.2849,0,0,0,0,0,0,0,0,0,0,0,-0.2524,-0.2525,-0.2526,-0.258,-0.2727,-0.2728,-0.2848,-0.2757,0,0,0,0,0,0,0,0,0,0,-0.2623,-0.2561,-0.2525,-0.2526,-0.258,-0.2726,-0.2728,-0.2753,-0.2762,-0.2757,0,-0.2775,0,-0.2808,-0.2854,-0.2854,0,0,0,-0.2593,-0.2553,-0.261,-0.2526,-0.2582,-0.2726,-0.2664,-0.2759,-0.2769,-0.2769,-0.2777,-0.2782,-0.281,-0.2855,-0.2855,-0.281,-0.2809,0,0,-0.2585,-0.2537,-0.2603,-0.2616,-0.2612,-0.2659,-0.2669,-0.2766,-0.2761,-0.2778,-0.2786,-0.2812,-0.2855,-0.2856,-0.2811,-0.2809,0,0,0,-0.2552,-0.253,-0.2586,-0.261,-0.2639,-0.2663,-0.2674,-0.2757,-0.278,-0.2787,-0.2813,-0.2856,-0.2857,-0.2812,-0.281,-0.2743,0,0,0,-0.2548,-0.2511,-0.2582,-0.2553,-0.2637,-0.2704,-0.2662,-0.2774,-0.2786,-0.2813,-0.2856,-0.2857,-0.2813,-0.2811,-0.2747,-0.2701,0,0,0,-0.2519,-0.2508,-0.2527,-0.2551,-0.2611,-0.2704,-0.2733,-0.2778,-0.2801,-0.2855,-0.2858,-0.2814,-0.2811,-0.2751,-0.2708,-0.2664,0,0,0,-0.2463,-0.2468,-0.2525,-0.2548,-0.2609,-0.2682,-0.2733,-0.2798,-0.2842,-0.2856,-0.2813,-0.281,-0.2752,-0.2712,-0.2668,-0.2544,-0.2515,0,0,-0.2437,-0.2463,-0.2483,-0.2539,-0.2587,-0.2664,-0.2677,-0.2764,-0.279,-0.2782,-0.2782,-0.2746,-0.2708,-0.2665,-0.2395,-0.2371,0,0,0,-0.2456,-0.2452,-0.249,-0.2526,-0.2608,-0.263,-0.2713,-0.271,-0.2707,-0.2802,-0.2712,-0.2689,-0.2665,-0.2598,-0.2577,-0.2798,-0.2798,-0.2799,-0.2799,-0.2323,-0.239,-0.2404,-0.248,-0.252,-0.2596,-0.2599,-0.259,-0.2659,-0.2614,-0.261,-0.2494,-0.2419,-0.2403,-0.2592,-0.2591,-0.2591,-0.2591,-0.2591,-0.2256,-0.2262,-0.2317,-0.2355,-0.2404,-0.2417,-0.2443,-0.2474,-0.2432,-0.2487,-0.2468,-0.2498,-0.2376,-0.2584,-0.2586,-0.2586,-0.2587,-0.2588,-0.2588,-0.2167,-0.2174,-0.2208,-0.2238,-0.2242,-0.2319,-0.2284,-0.2326,-0.2342,-0.2324,-0.2285,-0.2285,-0.247,-0.2339,-0.2339,-0.2338,-0.2338,-0.2338,-0.2337,-0.2067,-0.2095,-0.21,-0.2134,-0.214,-0.2158,-0.2201,-0.2191,-0.2173,-0.2173,-0.2173,-0.2409,-0.2417,-0.2454,-0.2331,-0.2332,-0.2333,-0.2333,-0.2334,-0.1976,-0.2008,-0.1996,-0.2001,-0.2006,-0.1936,-0.2021,-0.1972,-0.1981,-0.1931,-0.2083,-0.2091,-0.2101,-0.2117,-0.2145,-0.1949,-0.1949,-0.1949,-0.1949,-0.1913,-0.1931,-0.19,-0.1869,-0.1837,-0.182,-0.1683,-0.1656,-0.1716,-0.1712,-0.1723,-0.1748,-0.1768,-0.1764,-0.1787,-0.1811,-0.1528,-0.1527,-0.1527,-0.1861,-0.1859,-0.1802,-0.1785,-0.1737,-0.1659,-0.1464,-0.1311,-0.1347,-0.1514,-0.1684,-0.1914,-0.1982,-0.2002,-0.2027,-0.2052,-0.2104,0,0]},{"header":{"parameterUnit":"m.s-1","parameterCategory":2,"la1":30.2992,"la2":30.254,"lo1":-89.0895,"lo2":-89.0443,"dy":0.0025,"dx":0.0025,"nx":19,"ny":19,"refTime":"2026-05-01T21:00:00:Z","depth":"2","parameterNumber":3,"parameterNumberName":"V-component_of_CURRENTS"},"data":[0,0,0,-0.0529,-0.0528,-0.045,-0.0449,-0.0299,-0.0297,0,0,0,0,0,0,0,0,0,0,0,-0.0569,-0.0569,-0.0529,-0.0528,-0.045,-0.0449,-0.0299,-0.0297,0,0,0,0,0,0,0,0,0,0,0,-0.0569,-0.0569,-0.0569,-0.0527,-0.045,-0.0449,-0.0299,-0.0368,0,0,0,0,0,0,0,0,0,0,-0.0449,-0.0485,-0.0569,-0.0569,-0.0527,-0.045,-0.0449,-0.0371,-0.0363,-0.0323,0,-0.033,0,-0.0308,-0.0287,-0.0287,0,0,0,-0.0516,-0.0491,-0.0483,-0.0569,-0.0527,-0.045,-0.0482,-0.0367,-0.0358,-0.0312,-0.0328,-0.0322,-0.0305,-0.0286,-0.0285,-0.0178,-0.0178,0,0,-0.052,-0.0534,-0.049,-0.0478,-0.0529,-0.0484,-0.0479,-0.0362,-0.0353,-0.0327,-0.0318,-0.0303,-0.0285,-0.0284,-0.0178,-0.0178,0,0,0,-0.054,-0.0537,-0.0532,-0.0485,-0.0473,-0.0482,-0.0477,-0.0359,-0.0362,-0.0317,-0.0301,-0.0284,-0.0282,-0.0178,-0.0178,-0.0266,0,0,0,-0.0542,-0.055,-0.0535,-0.0539,-0.0477,-0.0418,-0.0476,-0.037,-0.0356,-0.0302,-0.0284,-0.0281,-0.0178,-0.0178,-0.0263,-0.0292,0,0,0,-0.0569,-0.0551,-0.0554,-0.0541,-0.0512,-0.042,-0.0415,-0.0367,-0.0346,-0.0286,-0.028,-0.0178,-0.0178,-0.0261,-0.0288,-0.0258,0,0,0,-0.0569,-0.0602,-0.0554,-0.058,-0.0514,-0.0495,-0.0415,-0.0383,-0.0343,-0.0283,-0.0178,-0.0178,-0.0261,-0.0286,-0.0257,-0.0196,-0.0197,0,0,-0.0619,-0.0608,-0.0625,-0.0581,-0.0595,-0.0504,-0.0482,-0.0395,-0.032,-0.021,-0.0208,-0.0264,-0.0288,-0.0258,-0.0191,-0.0192,0,0,0,-0.0646,-0.0661,-0.0658,-0.0647,-0.0611,-0.0554,-0.0464,-0.0407,-0.0315,-0.0295,-0.0237,-0.0249,-0.0227,-0.0187,-0.0188,-0.0177,-0.0177,-0.0177,-0.0177,-0.0719,-0.0704,-0.0729,-0.0703,-0.0676,-0.0578,-0.0522,-0.0416,-0.0355,-0.0324,-0.0302,-0.0313,-0.0272,-0.0271,-0.0283,-0.0284,-0.0284,-0.0284,-0.0284,-0.0803,-0.0818,-0.0778,-0.0804,-0.0731,-0.0694,-0.0553,-0.0494,-0.0379,-0.0343,-0.0318,-0.0259,-0.0277,-0.0291,-0.029,-0.0289,-0.0288,-0.0288,-0.0287,-0.0859,-0.0863,-0.0875,-0.0885,-0.0847,-0.076,-0.0689,-0.0579,-0.0453,-0.0426,-0.0321,-0.0318,-0.0352,-0.0403,-0.0403,-0.0403,-0.0403,-0.0403,-0.0403,-0.0909,-0.0917,-0.0966,-0.0963,-0.0958,-0.0909,-0.0765,-0.0674,-0.0499,-0.0389,-0.0388,-0.0351,-0.0347,-0.0356,-0.0403,-0.0403,-0.0403,-0.0403,-0.0403,-0.0976,-0.0989,-0.1056,-0.1076,-0.1053,-0.0989,-0.0873,-0.0644,-0.0527,-0.0418,-0.0339,-0.034,-0.029,-0.0287,-0.0292,-0.032,-0.032,-0.032,-0.032,-0.102,-0.1032,-0.1117,-0.1142,-0.1125,-0.1015,-0.0837,-0.0582,-0.0363,-0.0243,-0.0246,-0.0228,-0.0233,-0.0177,-0.0177,-0.0179,-0.0178,-0.0177,-0.0177,-0.1062,-0.1081,-0.1141,-0.1165,-0.1142,-0.1018,-0.0805,-0.0463,-0.0174,-0.0174,-0.0241,-0.0307,-0.0288,-0.0292,-0.0211,-0.021,-0.0213,0,0]}],[{"header":{"parameterUnit":"m.s-1","parameterCategory":2,"la1":30.2992,"la2":30.254,"lo1":-89.0895,"lo2":-89.0443,"dy":0.0025,"dx":0.0025,"nx":19,"ny":19,"refTime":"2026-05-01T21:00:00:Z","depth":"4","parameterNumber":2,"parameterNumberName":"U-component_of_CURRENTS"},"data":[0,0,0,-0.1547,-0.1547,-0.1631,-0.1632,-0.1766,-0.1767,0,0,0,0,0,0,0,0,0,0,0,-0.1547,-0.1548,-0.1547,-0.1548,-0.1631,-0.1632,-0.1766,-0.1767,0,0,0,0,0,0,0,0,0,0,0,-0.1547,-0.1547,-0.1548,-0.1548,-0.1631,-0.1632,-0.1766,-0.1703,0,0,0,0,0,0,0,0,0,0,-0.1622,-0.1618,-0.1547,-0.1548,-0.1548,-0.163,-0.1632,-0.17,-0.1707,-0.1727,0,-0.1743,0,-0.1732,-0.1774,-0.1774,0,0,0,-0.1578,-0.1612,-0.1613,-0.1548,-0.1548,-0.163,-0.1602,-0.1704,-0.1712,-0.1736,-0.1744,-0.1748,-0.1735,-0.1775,-0.1775,-0.1774,-0.1773,0,0,-0.1573,-0.1584,-0.1608,-0.1618,-0.1574,-0.1599,-0.1604,-0.1709,-0.1732,-0.1745,-0.1751,-0.1737,-0.1775,-0.1776,-0.1774,-0.1773,0,0,0,-0.154,-0.1581,-0.1581,-0.1614,-0.1612,-0.1601,-0.1607,-0.1729,-0.1722,-0.1752,-0.1738,-0.1776,-0.1777,-0.1775,-0.1774,-0.1846,0,0,0,-0.1538,-0.1558,-0.1578,-0.1589,-0.161,-0.1668,-0.1624,-0.1717,-0.1726,-0.1738,-0.1776,-0.1778,-0.1776,-0.1775,-0.1846,-0.1871,0,0,0,-0.1542,-0.1559,-0.1565,-0.1588,-0.1604,-0.1666,-0.1668,-0.1719,-0.1716,-0.1774,-0.1778,-0.1777,-0.1775,-0.1846,-0.187,-0.1871,0,0,0,-0.1555,-0.1572,-0.1566,-0.1588,-0.1603,-0.163,-0.1668,-0.1725,-0.1776,-0.1776,-0.1776,-0.1774,-0.1846,-0.1869,-0.187,-0.1651,0,0,0,-0.1574,-0.1576,-0.1584,-0.1578,-0.1587,-0.162,-0.1659,-0.1751,-0.1744,-0.1751,-0.1752,-0.1846,-0.187,-0.187,-0.1542,0,0,0,0,-0.1587,-0.1595,-0.1596,-0.1607,-0.1618,-0.1663,-0.1719,-0.1735,-0.1771,-0.1757,-0.1787,-0.1798,-0.1798,-0.1665,-0.1765,-0.1765,-0.1765,-0.1766,-0.1766,-0.1606,-0.1606,-0.1619,-0.1627,-0.1656,-0.1702,-0.1743,-0.1762,-0.1771,-0.1775,-0.1815,-0.1803,-0.166,-0.1766,-0.1767,-0.1767,-0.1767,-0.1767,-0.1767,-0.1594,-0.1568,-0.1626,-0.1641,-0.1685,-0.173,-0.1781,-0.1806,-0.1824,-0.181,-0.1807,-0.1695,-0.1773,-0.1772,-0.1771,-0.177,-0.177,-0.177,-0.1769,-0.1533,-0.1519,-0.1571,-0.161,-0.1687,-0.175,-0.1788,-0.1844,-0.1866,-0.1887,-0.1712,-0.183,-0.1874,-0.1882,-0.1882,-0.1882,-0.1883,-0.1883,-0.1883,-0.1416,-0.1467,-0.1481,-0.1563,-0.1614,-0.1691,-0.1795,-0.1805,-0.1852,-0.1742,-0.1897,-0.1841,-0.1837,-0.1876,-0.1884,-0.1884,-0.1884,-0.1884,-0.1884,-0.1277,-0.1315,-0.133,-0.138,-0.1498,-0.1556,-0.1694,-0.1668,-0.1661,-0.1603,-0.1649,-0.166,-0.161,-0.1612,-0.1642,-0.1582,-0.1579,-0.1576,0,-0.1164,-0.1185,-0.1196,-0.1249,-0.1308,-0.1462,-0.1409,-0.1457,-0.149,-0.1442,-0.1675,-0.173,-0.1735,-0.1682,-0.1679,-0.1714,0,0,0,-0.1069,-0.1093,-0.1069,-0.1145,-0.1223,-0.1279,-0.1389,-0.1336,-0.1493,-0.1409,-0.1507,-0.1525,-0.1752,-0.1889,-0.1839,-0.1834,-0.1894,0,0]},{"header":{"parameterUnit":"m.s-1","parameterCategory":2,"la1":30.2992,"la2":30.254,"lo1":-89.0895,"lo2":-89.0443,"dy":0.0025,"dx":0.0025,"nx":19,"ny":19,"refTime":"2026-05-01T21:00:00:Z","depth":"4","parameterNumber":3,"parameterNumberName":"V-component_of_CURRENTS"},"data":[0,0,0,-0.0295,-0.0295,-0.0262,-0.0262,-0.0192,-0.0191,0,0,0,0,0,0,0,0,0,0,0,-0.0319,-0.0319,-0.0295,-0.0295,-0.0262,-0.0262,-0.0192,-0.0191,0,0,0,0,0,0,0,0,0,0,0,-0.0319,-0.0319,-0.032,-0.0295,-0.0262,-0.0262,-0.0192,-0.0222,0,0,0,0,0,0,0,0,0,0,-0.0257,-0.028,-0.0319,-0.032,-0.0294,-0.0262,-0.0262,-0.0224,-0.022,-0.02,0,-0.021,0,-0.0195,-0.0186,-0.0186,0,0,0,-0.0289,-0.0283,-0.0279,-0.032,-0.0294,-0.0263,-0.0275,-0.0222,-0.0218,-0.0195,-0.0209,-0.0206,-0.0194,-0.0186,-0.0186,-0.0116,-0.0116,0,0,-0.029,-0.0303,-0.0282,-0.0277,-0.0304,-0.0276,-0.0274,-0.022,-0.022,-0.0209,-0.0204,-0.0193,-0.0185,-0.0185,-0.0116,-0.0116,0,0,0,-0.03,-0.0305,-0.0302,-0.028,-0.0274,-0.0276,-0.0273,-0.0223,-0.0224,-0.0204,-0.0192,-0.0185,-0.0184,-0.0117,-0.0116,-0.0168,0,0,0,-0.03,-0.031,-0.0303,-0.0309,-0.0276,-0.025,-0.0277,-0.0228,-0.0221,-0.0193,-0.0185,-0.0184,-0.0117,-0.0117,-0.0167,-0.0197,0,0,0,-0.0317,-0.0311,-0.0315,-0.031,-0.0297,-0.0251,-0.0248,-0.0226,-0.0214,-0.0186,-0.0183,-0.0117,-0.0117,-0.0166,-0.0195,-0.016,0,0,0,-0.032,-0.0351,-0.0316,-0.0339,-0.0298,-0.0296,-0.0248,-0.024,-0.0224,-0.0185,-0.0117,-0.0116,-0.0166,-0.0194,-0.016,-0.0158,0,0,0,-0.0364,-0.0357,-0.037,-0.0337,-0.0352,-0.0299,-0.0289,-0.0248,-0.0202,-0.0132,-0.0131,-0.0167,-0.0195,-0.016,-0.0126,0,0,0,0,-0.0386,-0.0402,-0.0399,-0.0396,-0.0373,-0.0341,-0.0293,-0.0249,-0.0187,-0.0189,-0.0142,-0.0157,-0.0134,-0.013,-0.0114,-0.0114,-0.0114,-0.0114,-0.0114,-0.0463,-0.0445,-0.0467,-0.0445,-0.0432,-0.0366,-0.0325,-0.0249,-0.0212,-0.0182,-0.018,-0.0165,-0.0163,-0.0153,-0.0153,-0.0153,-0.0154,-0.0154,-0.0154,-0.0532,-0.0528,-0.0514,-0.0535,-0.0485,-0.0467,-0.0352,-0.0304,-0.0207,-0.0189,-0.0162,-0.0163,-0.0158,-0.0157,-0.0157,-0.0156,-0.0156,-0.0156,-0.0155,-0.0562,-0.0553,-0.0582,-0.0594,-0.0585,-0.0524,-0.046,-0.0371,-0.0262,-0.0234,-0.0187,-0.018,-0.0194,-0.0212,-0.0212,-0.0212,-0.0212,-0.0212,-0.0211,-0.0559,-0.0583,-0.0614,-0.0641,-0.0654,-0.0631,-0.0522,-0.0436,-0.0322,-0.0238,-0.0244,-0.0184,-0.0182,-0.0195,-0.0211,-0.0211,-0.0211,-0.0211,-0.0211,-0.0545,-0.0565,-0.0612,-0.0646,-0.068,-0.0669,-0.0599,-0.0423,-0.0324,-0.0225,-0.0211,-0.0211,-0.0183,-0.0181,-0.0193,-0.021,-0.021,-0.021,0,-0.0518,-0.0535,-0.0586,-0.0638,-0.0664,-0.0671,-0.0552,-0.0447,-0.0301,-0.0306,-0.0313,-0.0307,-0.0303,-0.0281,-0.0278,-0.0298,0,0,0,-0.0491,-0.0516,-0.0542,-0.0611,-0.0657,-0.0567,-0.0513,-0.0444,-0.035,-0.0232,-0.021,-0.021,-0.0239,-0.0211,-0.0166,-0.0164,-0.0182,0,0]}]]